User: anonymous   Login
Location: Caribou
(46.8667°N, 68.0167°W)
Time: 06:17:30
(UTC-04:00)
Language:

SL-08 RB Rocket - Orbit

View from above orbital plane
View from above orbital plane
View from above satellite
View from above satellite

Ground track
Ground track

The orbit data is extracted from the following two-line orbital elements,

1 26387U 00033D   15148.22337733  .00000308  00000-0  62324-4 0  9993
2 26387 098.0637 216.5299 0026363 198.0346 228.4751 14.67878002797696
Epoch (UTC): 28 May 2015 05:21:39
Eccentricity: 0.0026363
inclination: 98.0637°
perigee height: 649 km
apogee height: 686 km
right ascension of ascending node: 216.5299°
argument of perigee: 198.0346°
revolutions per day: 14.67878002
mean anomaly at epoch: 228.4751°
orbit number at epoch: 79769

The dashed part of the orbit path shows where the satellite is in the earth's shadow,  

DLR